Location: Colorado Springs
(38.8340°N, 104.8210°W)
Time: 20:14:29
(UTC-06:00)

Vanguard 1 - Visible Passes

Search period start: 23 October 2017 00:00
Search period end: 02 November 2017 00:00
Orbit: 650 x 3834 km, 34.3° (Epoch: 23 October)

Date Brightness Start Highest point End Pass type
(mag) Time Alt. Az. Time Alt. Az. Time Alt. Az.
23 Oct 13.7 00:29:55 18° E 00:29:55 18° E 00:33:47 10° E visible
23 Oct 12.5 02:42:38 67° ESE 02:42:38 67° ESE 03:02:20 10° E visible
23 Oct 12.7 04:55:21 38° W 05:05:30 67° SSW 05:28:41 10° ESE visible
24 Oct 13.6 00:49:49 22° E 00:49:49 22° E 00:55:41 10° E visible
24 Oct 12.4 03:02:32 73° SSE 03:02:32 73° SSE 03:24:04 10° ESE visible
24 Oct 12.8 05:15:16 32° W 05:26:58 61° SSW 05:49:39 10° SE visible
25 Oct 13.4 01:09:46 27° E 01:09:46 27° E 01:17:33 10° E visible
25 Oct 12.3 03:22:30 74° S 03:22:30 74° S 03:45:42 10° ESE visible
25 Oct 13.0 05:35:14 26° W 05:48:18 53° SSW 06:10:20 10° SE visible
26 Oct 13.3 01:29:46 32° E 01:29:46 32° E 01:39:25 10° E visible
26 Oct 12.3 03:42:30 69° SW 03:43:52 70° SSW 04:07:11 10° ESE visible
26 Oct 13.1 05:55:14 20° W 06:09:32 46° SSW 06:30:39 10° SSE visible
27 Oct 13.1 01:49:48 38° ESE 01:49:48 38° ESE 02:01:16 10° E visible
27 Oct 12.4 04:02:32 61° SW 04:05:21 65° SSW 04:28:27 10° ESE visible
27 Oct 13.3 06:15:16 15° W 06:30:39 38° SW 06:50:34 10° SSE visible
28 Oct 13.0 02:09:52 43° ESE 02:09:52 43° ESE 02:23:03 10° ESE visible
28 Oct 12.4 04:22:36 52° WSW 04:26:46 58° SSW 04:49:27 10° SE visible
28 Oct 13.4 06:35:20 10° W 06:51:41 31° SW 07:09:57 10° S visible
29 Oct 12.8 02:29:58 48° ESE 02:29:58 48° ESE 02:44:43 10° ESE visible
29 Oct 12.6 04:42:42 44° WSW 04:48:08 51° SSW 05:10:09 10° SE visible
29 Oct 13.5 06:58:00 10° W 07:12:39 24° SW 07:28:34 10° S visible
30 Oct 13.9 00:37:21 12° E 00:37:21 12° E 00:38:18 10° E visible
30 Oct 12.7 02:50:06 52° SE 02:50:06 52° SE 03:06:15 10° ESE visible
30 Oct 12.7 05:02:50 36° WSW 05:09:25 44° SSW 05:30:28 10° SSE visible
31 Oct 13.8 00:57:31 15° E 00:57:31 15° E 01:00:06 10° E visible
31 Oct 12.6 03:10:15 53° SSE 03:10:15 53° SSE 03:27:33 10° SE visible
31 Oct 12.9 05:23:00 28° WSW 05:30:38 36° SW 05:50:21 10° SSE visible
01 Nov 13.7 01:17:41 19° ESE 01:17:41 19° ESE 01:21:52 10° ESE visible
01 Nov 12.6 03:30:26 51° S 03:30:26 51° S 03:48:34 10° SE visible
01 Nov 13.1 05:43:11 21° WSW 05:51:49 29° SW 06:09:38 10° S visible
01 Nov 12.1 20:37:51 10° SSW 20:38:18 12° S 20:38:18 12° S visible
